O3b星座 FM15星 (O3B FM15)

导读

O3B FM15是中圆地球轨道卫星,属于O3B(中纬度地球轨道)星座,由O3B Networks主导,于2018年3月9日发射升空。该卫星主要面向海事、航空、偏远地区提供高速互联网骨干连接服务,弥补传统通信覆盖不足的缺陷,服务全球客户,助力提升远距离、偏远地区的互联互通水平。

Basic Information
目录编号:
43231
目录名称:
O3B FM15
国际标识:
2018-024A
轨道中心:
EARTH
卫星名称:
O3b星座 FM15星
卫星全名:
O3b星座 FM15星 (O3B FM15)
卫星状态:
在轨 (已飞行3092 天)
发射日期:
2018-03-09 UTC
国别 :
(O3B)
星等 :
--
Orbit Information
数据来源 国际轨道数据 AOE轨道数据
星历时间 2026-08-24T23:43:31+0800
1天前
查看轨道信息
2026-08-21T05:00:00+0800
5天前
查看轨道信息
半长轴 14444.02km 14444.02km
偏心率 0.0002578 0.0002626
轨道倾角 0.056° 0.055°
近地点辐角 156.543° 149.533°
升交点赤经 356.677° 357.438°
平近点角 206.793° 244.906°
近地点 8062.159km 8062.09km
远地点 8069.607km 8069.676km
周期 287.933分钟 287.933分钟
每日圈数 5.001159 5.001159
Detailed Information
平衡模式:
三轴稳定
覆盖范围:
全球
运营商:
欧洲卫星公司
运营商所在国:
卢森堡
制造商(研发单位):
阿莱尼亚宇航公司
制造商所在国:
意大利
使用方式:
暂无
Satellite Introduction
O3b卫星星座分为O3b FM卫星星座和O3b mPOWER卫星星座,前者是由阿莱尼亚宇航公司制造的第一代O3b卫星星座,后者是由波音公司制造的第二代O3b卫星星座。O3b卫星初始星座运行于赤道圆轨道,轨道高度8062公里,能够覆盖全球南北纬45°之间所有地方,在南、北纬45°~62°范围内也能提供一定的服务。该卫星仍在工作。
2D Orbit Map
3D Orbit Map
Orbit Altitude Analysis Chart
Orbit Inclination Analysis Chart
Orbit Comprehensive Analysis Chart
View Comprehensive Chart